User: anonymous   Login
Location: Oshawa
(43.9000°N, 78.8670°W)
Time: 09:59:19
(UTC-04:00)
Language:

Cosmos 1408 Rocket - Orbit

View from above orbital plane
View from above orbital plane
View from above satellite
View from above satellite

Ground track
Ground track

The orbit data is extracted from the following two-line orbital elements,

1 13553U 82092B   14304.86802492  .00000465  00000-0  53261-4 0   581
2 13553 082.5716 047.6466 0020653 337.5144 162.0621 14.83648975734764
Epoch (UTC): 31 October 2014 20:49:57
Eccentricity: 0.0020653
inclination: 82.5716°
perigee height: 603 km
apogee height: 632 km
right ascension of ascending node: 47.6466°
argument of perigee: 337.5144°
revolutions per day: 14.83648975
mean anomaly at epoch: 162.0621°
orbit number at epoch: 73476

The dashed part of the orbit path shows where the satellite is in the earth's shadow,  

DLR